SUD029 SGAS-SBRJ

Flight info

Callsign SUD029
Flight time 1h 51m
Altitude 35000
Route ROLOK ROLOK UM548 KOXAG UM400 ILTIT DCT ASALU
Aircraft A320/M-SDFGHILORVWY/S

Departure

Time 2026-05-08 13:47
Airport Silvio Pettirossi International Airport (SGAS)

Arrival

Time 2026-05-08 15:38
Airport Santos Dumont Airport (SBRJ)
Time Latitude Longitude Altitude Speed Heading
2026-05-08 13:25 -25.24234 -57.51553 282 ft 0 kts 125°
2026-05-08 13:36 -25.24221 -57.51575 287 ft 4 kts 114°
2026-05-08 13:37 -25.24213 -57.51603 289 ft 4 kts 95°
2026-05-08 13:37 -25.24215 -57.51631 289 ft 4 kts 60°
2026-05-08 13:37 -25.24227 -57.51645 287 ft 0 kts 12°
2026-05-08 13:40 -25.24226 -57.51645 282 ft 2 kts 13°
2026-05-08 13:40 -25.24192 -57.51636 282 ft 9 kts 14°
2026-05-08 13:40 -25.24111 -57.51616 281 ft 15 kts 13°
2026-05-08 13:40 -25.24002 -57.51639 280 ft 15 kts 326°
2026-05-08 13:41 -25.23900 -57.51677 278 ft 17 kts 11°
2026-05-08 13:41 -25.23776 -57.51646 277 ft 19 kts 12°
2026-05-08 13:41 -25.23636 -57.51612 275 ft 22 kts 12°
2026-05-08 13:41 -25.23479 -57.51574 273 ft 24 kts 12°
2026-05-08 13:42 -25.23308 -57.51532 271 ft 26 kts 12°
2026-05-08 13:42 -25.23120 -57.51487 268 ft 29 kts 12°
2026-05-08 13:42 -25.22930 -57.51440 266 ft 23 kts 11°
2026-05-08 13:42 -25.22780 -57.51407 264 ft 17 kts 15°
2026-05-08 13:43 -25.22664 -57.51374 262 ft 17 kts 13°
2026-05-08 13:43 -25.22556 -57.51383 261 ft 16 kts 317°
2026-05-08 13:43 -25.22533 -57.51453 261 ft 14 kts 281°
2026-05-08 13:43 -25.22532 -57.51563 261 ft 7 kts 216°
2026-05-08 13:44 -25.22560 -57.51571 261 ft 7 kts 190°
2026-05-08 13:44 -25.22571 -57.51573 261 ft 0 kts 191°
2026-05-08 13:46 -25.22572 -57.51573 261 ft 2 kts 191°
2026-05-08 13:46 -25.22688 -57.51599 263 ft 46 kts 192°
2026-05-08 13:46 -25.23215 -57.51728 270 ft 107 kts 192°
2026-05-08 13:46 -25.24114 -57.51946 286 ft 155 kts 192°
2026-05-08 13:47 -25.25230 -57.52242 618 ft 170 kts 192°
2026-05-08 13:47 -25.26389 -57.52578 1210 ft 176 kts 192°
2026-05-08 13:47 -25.27581 -57.52878 1823 ft 177 kts 187°
2026-05-08 13:47 -25.28842 -57.53146 2162 ft 192 kts 188°
2026-05-08 13:48 -25.30201 -57.53408 2531 ft 206 kts 184°
2026-05-08 13:48 -25.31657 -57.53384 2933 ft 227 kts 171°
2026-05-08 13:48 -25.33224 -57.52875 3452 ft 247 kts 155°
2026-05-08 13:48 -25.34694 -57.51790 4147 ft 261 kts 139°
2026-05-08 13:49 -25.35812 -57.50175 5050 ft 272 kts 120°
2026-05-08 13:49 -25.36343 -57.48159 5875 ft 273 kts 100°
2026-05-08 13:49 -25.36355 -57.46038 6094 ft 281 kts 91°
2026-05-08 13:49 -25.36222 -57.43925 6026 ft 270 kts 90°
2026-05-08 13:50 -25.36070 -57.41883 6455 ft 275 kts 88°
2026-05-08 13:50 -25.35873 -57.39796 7182 ft 280 kts 89°
2026-05-08 13:50 -25.35826 -57.37617 7978 ft 288 kts 92°
2026-05-08 13:50 -25.35856 -57.35352 8666 ft 299 kts 92°
2026-05-08 13:51 -25.35906 -57.33062 9265 ft 306 kts 91°
2026-05-08 13:51 -25.35949 -57.30678 9874 ft 314 kts 90°
2026-05-08 13:51 -25.35975 -57.28233 10294 ft 328 kts 89°
2026-05-08 13:51 -25.35985 -57.25612 10438 ft 351 kts 89°
2026-05-08 13:52 -25.35981 -57.22826 10571 ft 374 kts 89°
2026-05-08 13:52 -25.35968 -57.19901 10979 ft 385 kts 88°
2026-05-08 13:52 -25.35957 -57.16924 11559 ft 390 kts 88°
2026-05-08 13:52 -25.35947 -57.13913 12170 ft 394 kts 88°
2026-05-08 13:53 -25.35936 -57.10871 12779 ft 398 kts 87°
2026-05-08 13:53 -25.35925 -57.07807 13393 ft 401 kts 87°
2026-05-08 13:53 -25.35911 -57.04704 13977 ft 405 kts 86°
2026-05-08 13:53 -25.35899 -57.01566 14486 ft 410 kts 87°
2026-05-08 13:54 -25.35886 -56.98402 14971 ft 414 kts 87°
2026-05-08 13:54 -25.35870 -56.95203 15467 ft 419 kts 87°
2026-05-08 13:54 -25.35851 -56.91965 15944 ft 423 kts 87°
2026-05-08 13:54 -25.35839 -56.89888 16242 ft 426 kts 87°
2026-05-08 13:55 -25.35811 -56.84841 16942 ft 433 kts 87°
2026-05-08 13:55 -25.35795 -56.81583 17374 ft 437 kts 87°
2026-05-08 13:55 -25.35757 -56.74785 18291 ft 446 kts 87°
2026-05-08 13:56 -25.35737 -56.71340 18676 ft 451 kts 87°
2026-05-08 13:56 -25.35716 -56.67858 19098 ft 454 kts 88°
2026-05-08 13:56 -25.35693 -56.64359 19525 ft 457 kts 88°
2026-05-08 13:56 -25.35729 -56.60831 19940 ft 462 kts 93°
2026-05-08 13:57 -25.36117 -56.57290 20359 ft 465 kts 97°
2026-05-08 13:57 -25.36537 -56.53737 20775 ft 468 kts 96°
2026-05-08 13:57 -25.36949 -56.50145 21188 ft 472 kts 96°
2026-05-08 13:57 -25.37358 -56.46537 21590 ft 475 kts 96°
2026-05-08 13:58 -25.37765 -56.42908 21989 ft 478 kts 96°
2026-05-08 13:58 -25.38175 -56.39250 22380 ft 481 kts 96°
2026-05-08 13:58 -25.38588 -56.35578 22772 ft 483 kts 96°
2026-05-08 13:58 -25.39002 -56.31878 23158 ft 486 kts 97°
2026-05-08 13:59 -25.39418 -56.28158 23532 ft 488 kts 96°
2026-05-08 13:59 -25.39836 -56.24418 23851 ft 491 kts 96°
2026-05-08 13:59 -25.40257 -56.20666 24151 ft 493 kts 96°
2026-05-08 13:59 -25.40682 -56.16895 24455 ft 496 kts 96°
2026-05-08 14:00 -25.41108 -56.13103 24756 ft 498 kts 96°
2026-05-08 14:00 -25.41534 -56.09289 25043 ft 500 kts 96°
2026-05-08 14:00 -25.41959 -56.05463 25335 ft 502 kts 96°
2026-05-08 14:00 -25.42385 -56.01619 25626 ft 505 kts 96°
2026-05-08 14:01 -25.42811 -55.97757 25915 ft 507 kts 96°
2026-05-08 14:01 -25.43238 -55.93877 26189 ft 510 kts 96°
2026-05-08 14:01 -25.43666 -55.89971 26461 ft 512 kts 96°
2026-05-08 14:01 -25.44094 -55.86055 26723 ft 514 kts 96°
2026-05-08 14:02 -25.44523 -55.82118 26991 ft 516 kts 96°
2026-05-08 14:02 -25.44954 -55.78167 27231 ft 518 kts 96°
2026-05-08 14:02 -25.45388 -55.74208 27506 ft 520 kts 96°
2026-05-08 14:02 -25.45825 -55.70228 27766 ft 521 kts 96°
2026-05-08 14:03 -25.46261 -55.66242 27996 ft 523 kts 96°
2026-05-08 14:03 -25.46550 -55.63593 28151 ft 524 kts 96°
2026-05-08 14:03 -25.46985 -55.59586 28373 ft 526 kts 96°
2026-05-08 14:03 -25.47418 -55.55555 28587 ft 528 kts 96°
2026-05-08 14:04 -25.47848 -55.51514 28792 ft 530 kts 96°
2026-05-08 14:04 -25.48278 -55.47462 29040 ft 530 kts 96°
2026-05-08 14:04 -25.48709 -55.43408 29244 ft 531 kts 96°
2026-05-08 14:04 -25.49144 -55.39345 29525 ft 531 kts 96°
2026-05-08 14:05 -25.49577 -55.35287 29811 ft 530 kts 95°
2026-05-08 14:05 -25.50004 -55.31243 30118 ft 530 kts 95°
2026-05-08 14:05 -25.50429 -55.27179 30314 ft 531 kts 95°
2026-05-08 14:05 -25.50852 -55.23118 30544 ft 530 kts 95°
2026-05-08 14:06 -25.51276 -55.19076 30798 ft 529 kts 95°
2026-05-08 14:06 -25.51701 -55.15041 31033 ft 528 kts 95°
2026-05-08 14:06 -25.52129 -55.10999 31282 ft 528 kts 95°
2026-05-08 14:06 -25.52554 -55.06962 31525 ft 527 kts 95°
2026-05-08 14:07 -25.52973 -55.02931 31765 ft 526 kts 95°
2026-05-08 14:07 -25.53385 -54.98916 32001 ft 526 kts 94°
2026-05-08 14:07 -25.53797 -54.94895 32258 ft 525 kts 94°
2026-05-08 14:07 -25.54207 -54.90887 32506 ft 524 kts 94°
2026-05-08 14:08 -25.54617 -54.86878 32752 ft 523 kts 94°
2026-05-08 14:08 -25.55028 -54.82873 33008 ft 523 kts 94°
2026-05-08 14:08 -25.55439 -54.78876 33258 ft 522 kts 94°
2026-05-08 14:08 -25.55849 -54.74880 33490 ft 522 kts 94°
2026-05-08 14:09 -25.56253 -54.70889 33711 ft 522 kts 94°
2026-05-08 14:09 -25.56649 -54.66943 33929 ft 522 kts 94°
2026-05-08 14:09 -25.57049 -54.62945 34158 ft 521 kts 94°
2026-05-08 14:09 -25.57448 -54.58961 34380 ft 520 kts 93°
2026-05-08 14:10 -25.57848 -54.54982 34607 ft 520 kts 94°
2026-05-08 14:10 -25.58242 -54.50997 34807 ft 519 kts 91°
2026-05-08 14:10 -25.58352 -54.47007 34961 ft 517 kts 86°
2026-05-08 14:11 -25.58400 -54.39039 34999 ft 518 kts 86°
2026-05-08 14:11 -25.58461 -54.31054 35003 ft 518 kts 86°
2026-05-08 14:12 -25.58525 -54.23069 34976 ft 518 kts 86°
2026-05-08 14:12 -25.58573 -54.15099 34992 ft 517 kts 86°
2026-05-08 14:13 -25.58607 -54.07132 34992 ft 517 kts 86°
2026-05-08 14:13 -25.58648 -53.99176 34969 ft 517 kts 86°
2026-05-08 14:14 -25.58690 -53.91250 34977 ft 517 kts 86°
2026-05-08 14:14 -25.58721 -53.83261 34982 ft 517 kts 86°
2026-05-08 14:15 -25.58743 -53.75306 35011 ft 517 kts 86°
2026-05-08 14:15 -25.58791 -53.67332 34985 ft 517 kts 86°
2026-05-08 14:16 -25.58848 -53.59363 34983 ft 517 kts 86°
2026-05-08 14:16 -25.58900 -53.51405 34985 ft 517 kts 86°
2026-05-08 14:17 -25.58934 -53.43444 34977 ft 517 kts 86°
2026-05-08 14:17 -25.58964 -53.35482 34978 ft 517 kts 86°
2026-05-08 14:18 -25.58994 -53.27513 34982 ft 517 kts 86°
2026-05-08 14:18 -25.59025 -53.19606 34959 ft 517 kts 86°
2026-05-08 14:19 -25.59046 -53.11637 34962 ft 516 kts 86°
2026-05-08 14:19 -25.59061 -53.03689 34958 ft 516 kts 86°
2026-05-08 14:20 -25.59079 -52.95741 34942 ft 516 kts 86°
2026-05-08 14:20 -25.59091 -52.87788 34972 ft 516 kts 86°
2026-05-08 14:21 -25.59101 -52.79852 34970 ft 515 kts 85°
2026-05-08 14:21 -25.59097 -52.71916 34944 ft 515 kts 85°
2026-05-08 14:22 -25.59091 -52.63989 34941 ft 514 kts 85°
2026-05-08 14:22 -25.59077 -52.56069 34943 ft 514 kts 85°
2026-05-08 14:23 -25.59064 -52.48149 34930 ft 514 kts 85°
2026-05-08 14:23 -25.59054 -52.40222 34934 ft 515 kts 85°
2026-05-08 14:24 -25.59035 -52.32293 34933 ft 515 kts 85°
2026-05-08 14:24 -25.59008 -52.24366 34923 ft 515 kts 85°
2026-05-08 14:25 -25.58979 -52.16485 34934 ft 515 kts 85°
2026-05-08 14:25 -25.58950 -52.08543 34947 ft 516 kts 85°
2026-05-08 14:26 -25.58913 -52.00592 34939 ft 516 kts 84°
2026-05-08 14:26 -25.58869 -51.92642 34941 ft 517 kts 84°
2026-05-08 14:27 -25.58817 -51.84685 34957 ft 517 kts 84°
2026-05-08 14:27 -25.58767 -51.76715 34945 ft 517 kts 84°
2026-05-08 14:28 -25.58720 -51.68747 34964 ft 518 kts 84°
2026-05-08 14:28 -25.58659 -51.60767 34974 ft 518 kts 84°
2026-05-08 14:29 -25.58600 -51.52796 34954 ft 517 kts 84°
2026-05-08 14:29 -25.58531 -51.44823 34966 ft 518 kts 84°
2026-05-08 14:30 -25.58454 -51.36845 34969 ft 519 kts 84°
2026-05-08 14:30 -25.58382 -51.28861 34980 ft 518 kts 84°
2026-05-08 14:31 -25.58306 -51.20889 34987 ft 517 kts 84°
2026-05-08 14:31 -25.58219 -51.12929 34992 ft 517 kts 84°
2026-05-08 14:32 -25.58087 -51.01002 34990 ft 516 kts 84°
2026-05-08 14:32 -25.57984 -50.93099 34982 ft 516 kts 84°
2026-05-08 14:33 -25.57883 -50.85155 34958 ft 515 kts 84°
2026-05-08 14:33 -25.57786 -50.77205 34964 ft 515 kts 84°
2026-05-08 14:34 -25.57676 -50.69275 34970 ft 515 kts 84°
2026-05-08 14:34 -25.57557 -50.61340 34956 ft 515 kts 84°
2026-05-08 14:35 -25.57439 -50.53407 34969 ft 515 kts 84°
2026-05-08 14:35 -25.57323 -50.45464 34999 ft 515 kts 83°
2026-05-08 14:36 -25.57201 -50.37539 34970 ft 515 kts 83°
2026-05-08 14:36 -25.57068 -50.29611 34974 ft 514 kts 83°
2026-05-08 14:37 -25.56927 -50.21749 34972 ft 514 kts 83°
2026-05-08 14:37 -25.56789 -50.13824 34953 ft 514 kts 84°
2026-05-08 14:38 -25.56653 -50.05908 34954 ft 514 kts 84°
2026-05-08 14:38 -25.56412 -49.98005 34955 ft 513 kts 82°
2026-05-08 14:39 -25.56038 -49.90138 34961 ft 511 kts 82°
2026-05-08 14:39 -25.55661 -49.82279 34973 ft 511 kts 82°
2026-05-08 14:40 -25.55319 -49.74430 34960 ft 510 kts 83°
2026-05-08 14:40 -25.54984 -49.66588 34975 ft 509 kts 82°
2026-05-08 14:41 -25.54648 -49.58765 34971 ft 509 kts 82°
2026-05-08 14:41 -25.54303 -49.50957 34981 ft 508 kts 82°
2026-05-08 14:42 -25.53948 -49.43139 35014 ft 507 kts 82°
2026-05-08 14:42 -25.53646 -49.35342 35039 ft 507 kts 84°
2026-05-08 14:43 -25.53466 -49.27524 35049 ft 508 kts 84°
2026-05-08 14:43 -25.53296 -49.19703 35044 ft 508 kts 84°
2026-05-08 14:44 -25.52417 -49.12074 35044 ft 500 kts 73°
2026-05-08 14:44 -25.51106 -49.04507 35017 ft 501 kts 74°
2026-05-08 14:45 -25.49814 -48.96912 34986 ft 502 kts 74°
2026-05-08 14:45 -25.48524 -48.89305 34946 ft 502 kts 74°
2026-05-08 14:46 -25.47224 -48.81704 34908 ft 503 kts 74°
2026-05-08 14:46 -25.45904 -48.74111 34896 ft 503 kts 73°
2026-05-08 14:47 -25.44576 -48.66505 34907 ft 503 kts 73°
2026-05-08 14:47 -25.43265 -48.58948 34886 ft 504 kts 73°
2026-05-08 14:48 -25.41941 -48.51307 34871 ft 505 kts 73°
2026-05-08 14:48 -25.40607 -48.43657 34879 ft 506 kts 73°
2026-05-08 14:49 -25.39257 -48.35996 34865 ft 508 kts 73°
2026-05-08 14:49 -25.37901 -48.28316 34862 ft 509 kts 73°
2026-05-08 14:50 -25.36549 -48.20625 34859 ft 510 kts 73°
2026-05-08 14:50 -25.35421 -48.14225 34863 ft 511 kts 73°
2026-05-08 14:51 -25.34052 -48.06515 34869 ft 511 kts 73°
2026-05-08 14:51 -25.32678 -47.98804 34865 ft 511 kts 74°
2026-05-08 14:52 -25.30623 -47.87253 34881 ft 511 kts 73°
2026-05-08 14:53 -25.29245 -47.79557 34866 ft 510 kts 74°
2026-05-08 14:53 -25.27858 -47.71873 34899 ft 509 kts 74°
2026-05-08 14:54 -25.26707 -47.65506 34905 ft 508 kts 74°
2026-05-08 14:54 -25.25092 -47.56608 34901 ft 508 kts 74°
2026-05-08 14:55 -25.23705 -47.48951 34908 ft 507 kts 74°
2026-05-08 14:55 -25.22321 -47.41312 34908 ft 507 kts 74°
2026-05-08 14:56 -25.20923 -47.33676 34907 ft 507 kts 74°
2026-05-08 14:56 -25.19525 -47.26051 34909 ft 507 kts 74°
2026-05-08 14:57 -25.18117 -47.18424 34904 ft 507 kts 74°
2026-05-08 14:57 -25.16712 -47.10846 34909 ft 507 kts 75°
2026-05-08 14:58 -25.15306 -47.03230 34909 ft 507 kts 75°
2026-05-08 14:58 -25.13375 -46.95822 34889 ft 497 kts 60°
2026-05-08 14:59 -25.10337 -46.88998 34896 ft 496 kts 59°
2026-05-08 14:59 -25.05774 -46.78691 34907 ft 496 kts 59°
2026-05-08 15:00 -25.02758 -46.71906 34913 ft 496 kts 59°
2026-05-08 15:00 -24.99711 -46.65076 34916 ft 496 kts 58°
2026-05-08 15:01 -24.96663 -46.58261 34917 ft 496 kts 58°
2026-05-08 15:01 -24.93611 -46.51435 34911 ft 496 kts 59°
2026-05-08 15:02 -24.90566 -46.44618 34920 ft 496 kts 59°
2026-05-08 15:02 -24.87505 -46.37803 34922 ft 496 kts 58°
2026-05-08 15:03 -24.84441 -46.30990 34915 ft 496 kts 59°
2026-05-08 15:03 -24.81373 -46.24184 34923 ft 496 kts 59°
2026-05-08 15:04 -24.78306 -46.17372 34912 ft 496 kts 59°
2026-05-08 15:04 -24.75239 -46.10563 34915 ft 497 kts 59°
2026-05-08 15:05 -24.72173 -46.03757 34919 ft 497 kts 59°
2026-05-08 15:05 -24.69085 -45.96962 34911 ft 497 kts 59°
2026-05-08 15:06 -24.66003 -45.90166 34927 ft 496 kts 59°
2026-05-08 15:06 -24.62919 -45.83374 34936 ft 496 kts 59°
2026-05-08 15:07 -24.59833 -45.76593 34934 ft 496 kts 59°
2026-05-08 15:07 -24.56746 -45.69815 34940 ft 496 kts 59°
2026-05-08 15:08 -24.54175 -45.64185 34942 ft 496 kts 59°
2026-05-08 15:08 -24.50587 -45.56321 34935 ft 496 kts 59°
2026-05-08 15:09 -24.47495 -45.49562 34946 ft 495 kts 59°
2026-05-08 15:09 -24.44398 -45.42815 34950 ft 495 kts 59°
2026-05-08 15:10 -24.41301 -45.36074 34954 ft 494 kts 60°
2026-05-08 15:10 -24.38221 -45.29339 34959 ft 494 kts 60°
2026-05-08 15:11 -24.35137 -45.22605 34959 ft 493 kts 60°
2026-05-08 15:11 -24.32049 -45.15891 34968 ft 493 kts 60°
2026-05-08 15:12 -24.28946 -45.09193 34966 ft 493 kts 60°
2026-05-08 15:12 -24.25843 -45.02494 34968 ft 493 kts 60°
2026-05-08 15:13 -24.22742 -44.95792 34971 ft 493 kts 60°
2026-05-08 15:13 -24.19645 -44.89096 34978 ft 493 kts 60°
2026-05-08 15:14 -24.16550 -44.82404 34966 ft 493 kts 60°
2026-05-08 15:14 -24.13437 -44.75719 34969 ft 493 kts 60°
2026-05-08 15:15 -24.10318 -44.69042 34856 ft 493 kts 60°
2026-05-08 15:15 -24.08774 -44.65686 34616 ft 493 kts 60°
2026-05-08 15:15 -24.07250 -44.62322 34380 ft 493 kts 60°
2026-05-08 15:16 -24.05736 -44.58954 34165 ft 494 kts 61°
2026-05-08 15:16 -24.04222 -44.55582 33929 ft 493 kts 61°
2026-05-08 15:16 -24.02708 -44.52214 33146 ft 496 kts 61°
2026-05-08 15:16 -24.01166 -44.48806 32067 ft 501 kts 61°
2026-05-08 15:17 -23.99612 -44.45383 31063 ft 504 kts 61°
2026-05-08 15:17 -23.98048 -44.41945 29968 ft 507 kts 61°
2026-05-08 15:17 -23.96469 -44.38481 28876 ft 508 kts 61°
2026-05-08 15:17 -23.94916 -44.35066 28400 ft 496 kts 61°
2026-05-08 15:18 -23.93408 -44.31749 27650 ft 492 kts 61°
2026-05-08 15:18 -23.91876 -44.28382 26959 ft 486 kts 61°
2026-05-08 15:18 -23.90380 -44.25094 26273 ft 480 kts 61°
2026-05-08 15:18 -23.88926 -44.21888 25619 ft 476 kts 61°
2026-05-08 15:19 -23.87476 -44.18651 24947 ft 472 kts 62°
2026-05-08 15:19 -23.86052 -44.15447 24287 ft 468 kts 62°
2026-05-08 15:19 -23.84642 -44.12264 23637 ft 464 kts 62°
2026-05-08 15:19 -23.83240 -44.09102 22919 ft 459 kts 60°
2026-05-08 15:20 -23.81567 -44.06181 22320 ft 449 kts 49°
2026-05-08 15:20 -23.79461 -44.03727 21758 ft 439 kts 38°
2026-05-08 15:20 -23.77021 -44.01801 21222 ft 429 kts 27°
2026-05-08 15:20 -23.74381 -44.00366 20706 ft 421 kts 22°
2026-05-08 15:21 -23.71741 -43.99026 20218 ft 415 kts 22°
2026-05-08 15:21 -23.69143 -43.97705 19744 ft 410 kts 22°
2026-05-08 15:21 -23.66574 -43.96393 19279 ft 405 kts 22°
2026-05-08 15:21 -23.64033 -43.95093 18817 ft 401 kts 22°
2026-05-08 15:22 -23.61517 -43.93807 18336 ft 398 kts 22°
2026-05-08 15:22 -23.59020 -43.92532 17813 ft 395 kts 22°
2026-05-08 15:22 -23.56548 -43.91270 17327 ft 390 kts 22°
2026-05-08 15:22 -23.54105 -43.90023 16846 ft 386 kts 22°
2026-05-08 15:23 -23.51684 -43.88786 16343 ft 382 kts 23°
2026-05-08 15:23 -23.49291 -43.87564 15865 ft 379 kts 23°
2026-05-08 15:23 -23.46913 -43.86353 15364 ft 376 kts 23°
2026-05-08 15:23 -23.44551 -43.85155 14864 ft 373 kts 23°
2026-05-08 15:24 -23.42187 -43.84027 14406 ft 368 kts 17°
2026-05-08 15:24 -23.39724 -43.83347 13878 ft 365 kts 15°
2026-05-08 15:24 -23.37361 -43.82351 13326 ft 364 kts 24°
2026-05-08 15:24 -23.35138 -43.81065 12824 ft 360 kts 28°
2026-05-08 15:25 -23.33011 -43.79724 12326 ft 356 kts 28°
2026-05-08 15:25 -23.30870 -43.78400 11819 ft 352 kts 27°
2026-05-08 15:25 -23.28720 -43.77153 11307 ft 348 kts 25°
2026-05-08 15:25 -23.26563 -43.75984 10802 ft 345 kts 24°
2026-05-08 15:26 -23.24430 -43.74885 10616 ft 332 kts 23°
2026-05-08 15:26 -23.22384 -43.73857 10495 ft 317 kts 22°
2026-05-08 15:26 -23.20421 -43.72878 10379 ft 304 kts 22°
2026-05-08 15:26 -23.18536 -43.71936 10257 ft 292 kts 22°
2026-05-08 15:27 -23.16724 -43.71027 10108 ft 283 kts 22°
2026-05-08 15:27 -23.14958 -43.70136 9930 ft 276 kts 22°
2026-05-08 15:27 -23.13213 -43.69257 9705 ft 277 kts 22°
2026-05-08 15:27 -23.11480 -43.68385 9339 ft 275 kts 22°
2026-05-08 15:28 -23.09753 -43.67515 8982 ft 273 kts 22°
2026-05-08 15:28 -23.08038 -43.66653 8633 ft 271 kts 22°
2026-05-08 15:28 -23.06334 -43.65796 8281 ft 269 kts 22°
2026-05-08 15:28 -23.04639 -43.64940 7932 ft 268 kts 21°
2026-05-08 15:29 -23.02958 -43.64092 7587 ft 266 kts 21°
2026-05-08 15:29 -23.01312 -43.63177 7227 ft 267 kts 30°
2026-05-08 15:29 -22.99919 -43.61861 6901 ft 270 kts 45°
2026-05-08 15:29 -22.98898 -43.60146 6798 ft 275 kts 59°
2026-05-08 15:30 -22.98079 -43.58266 6652 ft 276 kts 59°
2026-05-08 15:30 -22.97250 -43.56383 6483 ft 275 kts 59°
2026-05-08 15:30 -22.96421 -43.54512 6323 ft 275 kts 59°
2026-05-08 15:30 -22.95594 -43.52647 6160 ft 273 kts 58°
2026-05-08 15:31 -22.94770 -43.50787 5996 ft 274 kts 59°
2026-05-08 15:31 -22.93953 -43.48908 5731 ft 280 kts 60°
2026-05-08 15:31 -22.93146 -43.47005 5444 ft 274 kts 60°
2026-05-08 15:31 -22.92372 -43.45155 5169 ft 264 kts 59°
2026-05-08 15:32 -22.91618 -43.43352 4881 ft 260 kts 60°
2026-05-08 15:32 -22.90891 -43.41619 4619 ft 248 kts 61°
2026-05-08 15:32 -22.90210 -43.39995 4310 ft 235 kts 60°
2026-05-08 15:32 -22.89554 -43.38438 4027 ft 218 kts 60°
2026-05-08 15:33 -22.88938 -43.36982 3782 ft 208 kts 60°
2026-05-08 15:33 -22.88338 -43.35575 3537 ft 204 kts 62°
2026-05-08 15:33 -22.87856 -43.34150 3297 ft 203 kts 66°
2026-05-08 15:33 -22.87390 -43.32710 3022 ft 202 kts 69°
2026-05-08 15:34 -22.86926 -43.31270 2841 ft 198 kts 68°
2026-05-08 15:34 -22.86484 -43.29893 2588 ft 189 kts 68°
2026-05-08 15:34 -22.86064 -43.28582 2341 ft 179 kts 68°
2026-05-08 15:34 -22.85674 -43.27367 2127 ft 162 kts 68°
2026-05-08 15:35 -22.85498 -43.26213 1959 ft 155 kts 91°
2026-05-08 15:35 -22.85652 -43.25094 1760 ft 152 kts 97°
2026-05-08 15:35 -22.85813 -43.23980 1558 ft 148 kts 95°
2026-05-08 15:35 -22.85971 -43.22875 1356 ft 147 kts 95°
2026-05-08 15:36 -22.86128 -43.21773 1171 ft 147 kts 97°
2026-05-08 15:36 -22.86230 -43.21046 1027 ft 146 kts 97°
2026-05-08 15:36 -22.86451 -43.19595 832 ft 146 kts 99°
2026-05-08 15:36 -22.86760 -43.18543 836 ft 149 kts 118°
2026-05-08 15:37 -22.87490 -43.17731 715 ft 155 kts 147°
2026-05-08 15:37 -22.88456 -43.17251 420 ft 153 kts 156°
2026-05-08 15:37 -22.89382 -43.16701 284 ft 152 kts 153°
2026-05-08 15:37 -22.90388 -43.16413 62 ft 150 kts 177°
2026-05-08 15:38 -22.91333 -43.16347 19 ft 104 kts 175°
2026-05-08 15:38 -22.91703 -43.16279 19 ft 27 kts 127°
2026-05-08 15:38 -22.91705 -43.16231 19 ft 0 kts 52°
2026-05-08 15:38 -22.91703 -43.16230 19 ft 0 kts 38°
2026-05-08 15:39 -22.91701 -43.16231 19 ft 1 kts 12°
2026-05-08 15:39 -22.91659 -43.16242 18 ft 10 kts 335°
2026-05-08 15:39 -22.91623 -43.16280 18 ft 12 kts 313°
2026-05-08 15:39 -22.91532 -43.16375 18 ft 15 kts 317°
2026-05-08 15:40 -22.91480 -43.16427 19 ft 16 kts 317°
2026-05-08 15:40 -22.91398 -43.16503 20 ft 11 kts 339°
2026-05-08 15:40 -22.91314 -43.16510 20 ft 12 kts 359°
2026-05-08 15:40 -22.91280 -43.16522 20 ft 5 kts 306°
2026-05-08 15:41 -22.91281 -43.16531 20 ft 0 kts 271°
2026-05-08 15:41 -22.91278 -43.16556 20 ft 7 kts 275°
2026-05-08 15:41 -22.91279 -43.16571 20 ft 0 kts 264°